Location: Stara Lesna
(49.1528°N, 20.2911°E)
Time: 03:38:11
(UTC+02:00)

Abrixas rocket - Pass Details

Date: 13 July 2020
Orbit: 338 x 346 km, 48.4° (Epoch: 10 August)

Event Time Altitude Azimuth Distance (km) Brightness Sun altitude
Exits shadow 03:11:04 - 274° (W) 1,457 4.7 -11.9°
Reaches altitude 10° 03:11:30 10° 273° (W) 1,283 4.4 -11.9°
Maximum altitude 03:14:19 59° 193° (SSW) 397 1.8 -11.6°
Drops below altitude 10° 03:17:08 10° 113° (ESE) 1,279 4.9 -11.4°
Sets 03:19:09 0° 109° (ESE) 2,117 6.1 -11.2°
